Time,TemperatureF,DewpointF,PressureIn,WindDirection,WindDirectionDegrees,WindSpeedMPH,WindSpeedGustMPH,Humidity,HourlyPrecipIn,Conditions,Clouds,dailyrainin,SolarRadiationWatts/m^2,SoftwareType,DateUTC
2013-04-02 00:00:00,26.3,13.9,30.01,SW,230,3.0,13.0,59,0.00,RA,,0.00,0.0,WeatherDisplay:10.37,2013-04-02 04:00:00,
2013-04-02 00:05:00,26.3,13.9,30.01,WSW,241,6.0,12.0,59,0.00,RA,,0.00,0.0,WeatherDisplay:10.37,2013-04-02 04:05:00,
2013-04-02 00:15:00,26.3,13.5,30.01,SW,233,8.0,13.0,58,0.00,FEW,,0.00,0.0,WeatherDisplay:10.37,2013-04-02 04:15:00,
2013-04-02 00:20:00,26.3,13.5,30.01,SW,236,9.0,13.0,58,0.00,SCT,,0.00,0.0,WeatherDisplay:10.37,2013-04-02 04:20:00,
2013-04-02 00:25:00,26.3,13.5,30.01,WSW,240,7.0,13.0,58,0.00,SCT,,0.00,0.0,WeatherDisplay:10.37,2013-04-02 04:25:00,
2013-04-02 00:30:00,26.3,13.5,30.01,WSW,239,7.0,12.0,58,0.00,SCT,,0.00,0.0,WeatherDisplay:10.37,2013-04-02 04:30:00,
2013-04-02 00:35:00,26.1,13.7,30.01,WSW,238,6.0,13.0,59,0.00,SCT,,0.00,0.0,WeatherDisplay:10.37,2013-04-02 04:35:00,
2013-04-02 00:40:00,26.1,13.7,30.01,WSW,238,6.0,12.0,59,0.00,SCT,,0.00,0.0,WeatherDisplay:10.37,2013-04-02 04:40:00,
2013-04-02 00:45:00,26.1,13.3,30.01,WSW,242,6.0,18.0,58,0.00,SCT,,0.00,0.0,WeatherDisplay:10.37,2013-04-02 04:45:00,
2013-04-02 00:50:00,26.1,13.7,30.01,WSW,241,8.0,13.0,59,0.00,SCT,,0.00,0.0,WeatherDisplay:10.37,2013-04-02 04:50:00,
2013-04-02 00:55:00,26.0,13.7,30.01,SW,236,5.0,12.0,59,0.00,SCT,,0.00,0.0,WeatherDisplay:10.37,2013-04-02 04:55:00,
2013-04-02 01:00:00,26.0,14.0,30.01,SW,234,6.0,9.0,60,0.00,SCT,,0.00,0.0,WeatherDisplay:10.37,2013-04-02 05:00:00,
2013-04-02 01:05:00,25.8,13.8,30.01,SW,229,7.0,12.0,60,0.00,SCT,,0.00,0.0,WeatherDisplay:10.37,2013-04-02 05:05:00,
2013-04-02 01:10:00,25.7,13.7,30.01,SW,230,6.0,12.0,60,0.00,SCT,,0.00,0.0,WeatherDisplay:10.37,2013-04-02 05:10:00,
2013-04-02 01:15:00,25.5,13.9,30.01,SW,232,6.0,10.0,61,0.00,SCT,,0.00,0.0,WeatherDisplay:10.37,2013-04-02 05:15:00,
2013-04-02 01:20:00,25.4,13.8,30.01,SW,231,6.0,10.0,61,0.00,FEW,,0.00,0.0,WeatherDisplay:10.37,2013-04-02 05:20:00,
2013-04-02 01:25:00,25.4,13.8,30.01,SW,230,5.0,10.0,61,0.00,FEW,,0.00,0.0,WeatherDisplay:10.37,2013-04-02 05:25:00,
2013-04-02 01:35:00,25.2,13.6,30.02,SW,228,6.0,12.0,61,0.00,FEW,,0.00,0.0,WeatherDisplay:10.37,2013-04-02 05:35:00,
2013-04-02 01:40:00,25.2,13.6,30.02,SW,233,7.0,12.0,61,0.00,FEW,,0.00,0.0,WeatherDisplay:10.37,2013-04-02 05:40:00,
2013-04-02 01:45:00,25.1,13.5,30.02,WSW,239,5.0,12.0,61,0.00,FEW,,0.00,0.0,WeatherDisplay:10.37,2013-04-02 05:45:00,
2013-04-02 01:50:00,25.1,13.2,30.02,SW,226,7.0,12.0,60,0.00,FEW,,0.00,0.0,WeatherDisplay:10.37,2013-04-02 05:50:00,
2013-04-02 01:55:00,25.1,13.2,30.02,SW,219,5.0,7.0,60,0.00,FEW,,0.00,0.0,WeatherDisplay:10.37,2013-04-02 05:55:00,
2013-04-02 02:00:00,24.9,13.0,30.01,SW,225,6.0,12.0,60,0.00,FEW,,0.00,0.0,WeatherDisplay:10.37,2013-04-02 06:00:00,
2013-04-02 02:05:00,24.9,13.0,30.01,SW,231,5.0,10.0,60,0.00,FEW,,0.00,0.0,WeatherDisplay:10.37,2013-04-02 06:05:00,
2013-04-02 02:10:00,24.8,12.5,30.01,SW,236,7.0,12.0,59,0.00,FEW,,0.00,0.0,WeatherDisplay:10.37,2013-04-02 06:10:00,
2013-04-02 02:15:00,24.8,12.5,30.01,SW,236,2.0,10.0,59,0.00,FEW,,0.00,0.0,WeatherDisplay:10.37,2013-04-02 06:15:00,
2013-04-02 02:20:00,24.7,12.4,30.01,SW,236,6.0,12.0,59,0.00,FEW,,0.00,0.0,WeatherDisplay:10.37,2013-04-02 06:20:00,
2013-04-02 02:25:00,24.6,12.7,30.01,SW,235,6.0,12.0,60,0.00,FEW,,0.00,0.0,WeatherDisplay:10.37,2013-04-02 06:25:00,
2013-04-02 02:30:00,24.5,12.6,30.01,SW,223,3.0,7.0,60,0.00,FEW,,0.00,0.0,WeatherDisplay:10.37,2013-04-02 06:30:00,
2013-04-02 02:35:00,24.5,12.2,30.01,SW,226,5.0,12.0,59,0.00,FEW,,0.00,0.0,WeatherDisplay:10.37,2013-04-02 06:35:00,
2013-04-02 02:40:00,24.5,12.6,30.01,SW,235,5.0,8.0,60,0.00,FEW,,0.00,0.0,WeatherDisplay:10.37,2013-04-02 06:40:00,
2013-04-02 02:45:00,24.4,12.5,30.01,WSW,238,3.0,6.0,60,0.00,FEW,,0.00,0.0,WeatherDisplay:10.37,2013-04-02 06:45:00,
2013-04-02 02:50:00,24.2,12.7,30.01,WSW,237,2.0,7.0,61,0.00,FEW,,0.00,0.0,WeatherDisplay:10.37,2013-04-02 06:50:00,
2013-04-02 02:55:00,24.2,12.3,30.01,SW,225,5.0,10.0,60,0.00,FEW,,0.00,0.0,WeatherDisplay:10.37,2013-04-02 06:55:00,
2013-04-02 03:00:00,24.2,12.3,30.01,SW,224,6.0,8.0,60,0.00,FEW,,0.00,0.0,WeatherDisplay:10.37,2013-04-02 07:00:00,
2013-04-02 03:05:00,24.1,12.6,30.01,SW,227,5.0,8.0,61,0.00,FEW,,0.00,0.0,WeatherDisplay:10.37,2013-04-02 07:05:00,
2013-04-02 03:10:00,24.1,12.6,30.01,SW,222,3.0,9.0,61,0.00,FEW,,0.00,0.0,WeatherDisplay:10.37,2013-04-02 07:10:00,
2013-04-02 03:15:00,24.1,12.9,30.01,SSW,212,3.0,10.0,62,0.00,FEW,,0.00,0.0,WeatherDisplay:10.37,2013-04-02 07:15:00,
2013-04-02 03:20:00,24.1,12.9,30.01,SSW,209,5.0,12.0,62,0.00,FEW,,0.00,0.0,WeatherDisplay:10.37,2013-04-02 07:20:00,
2013-04-02 03:25:00,24.1,13.3,30.01,SW,216,6.0,9.0,63,0.00,FEW,,0.00,0.0,WeatherDisplay:10.37,2013-04-02 07:25:00,
2013-04-02 03:35:00,23.9,13.5,30.01,SW,223,5.0,9.0,64,0.00,FEW,,0.00,0.0,WeatherDisplay:10.37,2013-04-02 07:35:00,
2013-04-02 03:40:00,23.9,13.5,30.01,SW,223,3.0,9.0,64,0.00,FEW,,0.00,0.0,WeatherDisplay:10.37,2013-04-02 07:40:00,
2013-04-02 03:50:00,23.8,13.4,30.01,SW,216,3.0,12.0,64,0.00,FEW,,0.00,0.0,WeatherDisplay:10.37,2013-04-02 07:50:00,
2013-04-02 03:55:00,23.8,13.7,30.01,SW,215,3.0,9.0,65,0.00,FEW,,0.00,0.0,WeatherDisplay:10.37,2013-04-02 07:55:00,
2013-04-02 04:00:00,23.8,13.7,30.00,SW,224,6.0,12.0,65,0.00,FEW,,0.00,0.0,WeatherDisplay:10.37,2013-04-02 08:00:00,
2013-04-02 04:05:00,23.8,13.4,30.00,SW,227,9.0,14.0,64,0.00,FEW,,0.00,0.0,WeatherDisplay:10.37,2013-04-02 08:05:00,
2013-04-02 04:10:00,23.9,13.1,30.00,SW,226,6.0,9.0,63,0.00,FEW,,0.00,0.0,WeatherDisplay:10.37,2013-04-02 08:10:00,
2013-04-02 04:15:00,23.8,13.0,30.00,SW,219,5.0,8.0,63,0.00,FEW,,0.00,0.0,WeatherDisplay:10.37,2013-04-02 08:15:00,
2013-04-02 04:20:00,23.8,13.4,30.00,SW,221,3.0,13.0,64,0.00,FEW,,0.00,0.0,WeatherDisplay:10.37,2013-04-02 08:20:00,
2013-04-02 04:25:00,23.8,13.0,30.00,SW,230,6.0,9.0,63,0.00,FEW,,0.00,0.0,WeatherDisplay:10.37,2013-04-02 08:25:00,
2013-04-02 04:30:00,23.8,13.0,30.00,SW,224,6.0,10.0,63,0.00,FEW,,0.00,0.0,WeatherDisplay:10.37,2013-04-02 08:30:00,
2013-04-02 04:35:00,23.8,13.0,30.00,SW,216,5.0,10.0,63,0.00,FEW,,0.00,0.0,WeatherDisplay:10.37,2013-04-02 08:35:00,
2013-04-02 04:40:00,23.6,13.2,30.00,SW,221,6.0,9.0,64,0.00,FEW,,0.00,0.0,WeatherDisplay:10.37,2013-04-02 08:40:00,
2013-04-02 04:45:00,23.6,13.2,30.01,SW,222,3.0,8.0,64,0.00,FEW,,0.00,0.0,WeatherDisplay:10.37,2013-04-02 08:45:00,
2013-04-02 04:50:00,23.6,13.2,30.01,SW,220,5.0,10.0,64,0.00,FEW,,0.00,0.0,WeatherDisplay:10.37,2013-04-02 08:50:00,
2013-04-02 05:00:00,23.6,13.2,30.01,SW,227,6.0,10.0,64,0.00,FEW,,0.00,0.0,WeatherDisplay:10.37,2013-04-02 09:00:00,
2013-04-02 05:05:00,23.6,13.2,30.01,SW,225,6.0,9.0,64,0.00,FEW,,0.00,0.0,WeatherDisplay:10.37,2013-04-02 09:05:00,
2013-04-02 05:10:00,23.6,13.2,30.01,SW,228,7.0,15.0,64,0.00,FEW,,0.00,0.0,WeatherDisplay:10.37,2013-04-02 09:10:00,
2013-04-02 05:15:00,23.6,13.2,30.01,SW,232,5.0,13.0,64,0.00,FEW,,0.00,0.0,WeatherDisplay:10.37,2013-04-02 09:15:00,
2013-04-02 05:20:00,23.5,13.1,30.01,SW,226,6.0,12.0,64,0.00,FEW,,0.00,0.0,WeatherDisplay:10.37,2013-04-02 09:20:00,
2013-04-02 05:30:00,23.5,13.5,30.01,SW,224,5.0,12.0,65,0.00,FEW,,0.00,0.0,WeatherDisplay:10.37,2013-04-02 09:30:00,
2013-04-02 05:35:00,23.5,13.5,30.01,SW,222,3.0,7.0,65,0.00,FEW,,0.00,0.0,WeatherDisplay:10.37,2013-04-02 09:35:00,
2013-04-02 05:40:00,23.5,13.5,30.01,SW,231,6.0,8.0,65,0.00,FEW,,0.00,0.0,WeatherDisplay:10.37,2013-04-02 09:40:00,
2013-04-02 05:45:00,23.5,13.8,30.02,SW,224,5.0,8.0,66,0.00,FEW,,0.00,0.0,WeatherDisplay:10.37,2013-04-02 09:45:00,
2013-04-02 05:50:00,23.5,13.8,30.02,SW,215,3.0,8.0,66,0.00,FEW,,0.00,0.0,WeatherDisplay:10.37,2013-04-02 09:50:00,
2013-04-02 05:55:00,23.3,13.6,30.02,SW,218,5.0,10.0,66,0.00,FEW,,0.00,0.0,WeatherDisplay:10.37,2013-04-02 09:55:00,
2013-04-02 06:00:00,23.3,13.6,30.02,SW,222,5.0,9.0,66,0.00,FEW,,0.00,0.0,WeatherDisplay:10.37,2013-04-02 10:00:00,
2013-04-02 06:05:00,23.3,13.6,30.02,SW,224,5.0,8.0,66,0.00,FEW,,0.00,0.0,WeatherDisplay:10.37,2013-04-02 10:05:00,
2013-04-02 06:10:00,23.3,14.0,30.02,SW,221,5.0,8.0,67,0.00,FEW,,0.00,0.0,WeatherDisplay:10.37,2013-04-02 10:10:00,
2013-04-02 06:15:00,23.3,13.9,30.03,SW,222,3.0,8.0,67,0.00,FEW,,0.00,0.0,WeatherDisplay:10.37,2013-04-02 10:15:00,
2013-04-02 06:20:00,23.2,13.9,30.03,SW,222,5.0,8.0,67,0.00,FEW,,0.00,0.0,WeatherDisplay:10.37,2013-04-02 10:20:00,
2013-04-02 06:25:00,23.3,14.0,30.03,SW,224,3.0,12.0,67,0.00,FEW,,0.00,0.0,WeatherDisplay:10.37,2013-04-02 10:25:00,
2013-04-02 06:35:00,23.2,14.2,30.03,SW,221,2.0,6.0,68,0.00,FEW,,0.00,0.0,WeatherDisplay:10.37,2013-04-02 10:35:00,
2013-04-02 06:40:00,23.0,14.0,30.03,SW,219,2.0,7.0,68,0.00,FEW,,0.00,0.0,WeatherDisplay:10.37,2013-04-02 10:40:00,
2013-04-02 06:45:00,23.0,14.0,30.03,SW,215,3.0,8.0,68,0.00,FEW,,0.00,0.0,WeatherDisplay:10.37,2013-04-02 10:45:00,
2013-04-02 06:50:00,23.0,14.3,30.03,SSW,209,3.0,5.0,69,0.00,FEW,,0.00,0.0,WeatherDisplay:10.37,2013-04-02 10:50:00,
2013-04-02 06:55:00,22.9,14.6,30.03,SSW,210,3.0,7.0,70,0.00,FEW,,0.00,0.0,WeatherDisplay:10.37,2013-04-02 10:55:00,
2013-04-02 07:00:00,22.9,14.6,30.04,SSW,209,3.0,8.0,70,0.00,FEW,,0.00,0.0,WeatherDisplay:10.37,2013-04-02 11:00:00,
2013-04-02 07:05:00,22.9,14.6,30.04,SSW,210,5.0,8.0,70,0.00,FEW,,0.00,5.0,WeatherDisplay:10.37,2013-04-02 11:05:00,
2013-04-02 07:10:00,22.9,14.2,30.04,SW,214,5.0,7.0,69,0.00,FEW,,0.00,7.0,WeatherDisplay:10.37,2013-04-02 11:10:00,
2013-04-02 07:15:00,22.9,14.6,30.05,SW,221,5.0,10.0,70,0.00,FEW,,0.00,11.0,WeatherDisplay:10.37,2013-04-02 11:15:00,
2013-04-02 07:20:00,23.0,14.0,30.05,SW,221,2.0,6.0,68,0.00,FEW,,0.00,12.0,WeatherDisplay:10.37,2013-04-02 11:20:00,
2013-04-02 07:25:00,22.9,13.6,30.05,SW,217,2.0,5.0,67,0.00,FEW,,0.00,16.0,WeatherDisplay:10.37,2013-04-02 11:25:00,
2013-04-02 07:30:00,23.0,13.3,30.05,SW,219,5.0,8.0,66,0.00,FEW,,0.00,21.0,WeatherDisplay:10.37,2013-04-02 11:30:00,
2013-04-02 07:35:00,23.2,13.2,30.05,SW,218,3.0,8.0,65,0.00,FEW,,0.00,32.0,WeatherDisplay:10.37,2013-04-02 11:35:00,
2013-04-02 07:40:00,23.5,13.5,30.05,SW,221,5.0,10.0,65,0.00,FEW,,0.00,47.0,WeatherDisplay:10.37,2013-04-02 11:40:00,
2013-04-02 07:45:00,23.8,13.0,30.06,SW,221,3.0,8.0,63,0.00,FEW,,0.00,42.0,WeatherDisplay:10.37,2013-04-02 11:45:00,
2013-04-02 07:50:00,24.1,12.9,30.06,SW,221,5.0,13.0,62,0.00,FEW,,0.00,30.0,WeatherDisplay:10.37,2013-04-02 11:50:00,
2013-04-02 07:55:00,24.2,12.7,30.06,SW,221,6.0,12.0,61,0.00,FEW,,0.00,28.0,WeatherDisplay:10.37,2013-04-02 11:55:00,
2013-04-02 08:00:00,24.2,12.3,30.06,SW,227,5.0,12.0,60,0.00,FEW,,0.00,28.0,WeatherDisplay:10.37,2013-04-02 12:00:00,
2013-04-02 08:05:00,24.3,12.4,30.06,SW,223,2.0,9.0,60,0.00,FEW,,0.00,72.0,WeatherDisplay:10.37,2013-04-02 12:05:00,
2013-04-02 08:10:00,24.5,12.6,30.06,SW,216,3.0,10.0,60,0.00,FEW,,0.00,54.0,WeatherDisplay:10.37,2013-04-02 12:10:00,
2013-04-02 08:15:00,24.9,12.5,30.06,SW,217,5.0,10.0,59,0.00,FEW,,0.00,118.0,WeatherDisplay:10.37,2013-04-02 12:15:00,
2013-04-02 08:20:00,25.2,12.9,30.06,SSW,211,5.0,12.0,59,0.00,FEW,,0.00,47.0,WeatherDisplay:10.37,2013-04-02 12:20:00,
2013-04-02 08:25:00,25.5,13.1,30.06,SW,218,5.0,10.0,59,0.00,FEW,,0.00,62.0,WeatherDisplay:10.37,2013-04-02 12:25:00,
2013-04-02 08:30:00,26.0,13.2,30.07,SW,231,5.0,10.0,58,0.00,FEW,,0.00,56.0,WeatherDisplay:10.37,2013-04-02 12:30:00,
2013-04-02 08:35:00,26.4,13.2,30.07,SW,225,7.0,13.0,57,0.00,FEW,,0.00,148.0,WeatherDisplay:10.37,2013-04-02 12:35:00,
2013-04-02 08:40:00,26.7,12.3,30.07,SW,226,9.0,13.0,54,0.00,FEW,,0.00,239.0,WeatherDisplay:10.37,2013-04-02 12:40:00,
2013-04-02 08:45:00,27.2,13.5,30.08,SW,228,7.0,16.0,56,0.00,FEW,,0.00,294.0,WeatherDisplay:10.37,2013-04-02 12:45:00,
2013-04-02 08:50:00,27.3,13.2,30.08,SW,228,8.0,14.0,55,0.00,FEW,,0.00,185.0,WeatherDisplay:10.37,2013-04-02 12:50:00,
2013-04-02 08:55:00,27.7,13.6,30.08,SW,231,7.0,15.0,55,0.00,FEW,,0.00,244.0,WeatherDisplay:10.37,2013-04-02 12:55:00,
2013-04-02 09:00:00,28.2,13.7,30.08,SW,228,6.0,12.0,54,0.00,FEW,,0.00,355.0,WeatherDisplay:10.37,2013-04-02 13:00:00,
2013-04-02 09:05:00,28.4,13.5,30.08,SW,228,5.0,10.0,53,0.00,FEW,,0.00,283.0,WeatherDisplay:10.37,2013-04-02 13:05:00,
2013-04-02 09:10:00,28.8,13.8,30.08,SW,225,8.0,12.0,53,0.00,FEW,,0.00,148.0,WeatherDisplay:10.37,2013-04-02 13:10:00,
2013-04-02 09:15:00,29.1,13.7,30.08,SW,234,8.0,14.0,52,0.00,FEW,,0.00,74.0,WeatherDisplay:10.37,2013-04-02 13:15:00,
2013-04-02 09:20:00,29.1,13.6,30.08,SW,228,7.0,14.0,52,0.00,FEW,,0.00,88.0,WeatherDisplay:10.37,2013-04-02 13:20:00,
2013-04-02 09:25:00,29.2,13.7,30.08,SW,223,7.0,16.0,52,0.00,FEW,,0.00,125.0,WeatherDisplay:10.37,2013-04-02 13:25:00,
2013-04-02 09:35:00,29.8,13.4,30.08,SW,214,8.0,14.0,50,0.00,FEW,,0.00,100.0,WeatherDisplay:10.37,2013-04-02 13:35:00,
2013-04-02 09:40:00,30.1,13.7,30.08,SW,233,10.0,16.0,50,0.00,FEW,,0.00,202.0,WeatherDisplay:10.37,2013-04-02 13:40:00,
2013-04-02 09:45:00,30.3,13.9,30.08,SW,235,8.0,14.0,50,0.00,FEW,,0.00,127.0,WeatherDisplay:10.37,2013-04-02 13:45:00,
2013-04-02 09:50:00,30.0,13.6,30.08,SW,233,8.0,17.0,50,0.00,FEW,,0.00,497.0,WeatherDisplay:10.37,2013-04-02 13:50:00,
2013-04-02 10:00:00,31.0,14.0,30.08,WSW,240,7.0,13.0,49,0.00,FEW,,0.00,526.0,WeatherDisplay:10.37,2013-04-02 14:00:00,
2013-04-02 10:05:00,31.3,13.9,30.08,SW,227,9.0,15.0,48,0.00,BKN,,0.00,329.0,WeatherDisplay:10.37,2013-04-02 14:05:00,
2013-04-02 10:10:00,31.2,13.8,30.08,SW,228,8.0,17.0,48,0.00,BKN,,0.00,294.0,WeatherDisplay:10.37,2013-04-02 14:10:00,
2013-04-02 10:15:00,30.9,13.5,30.08,SW,228,12.0,16.0,48,0.00,BKN,,0.00,211.0,WeatherDisplay:10.37,2013-04-02 14:15:00,
2013-04-02 10:20:00,30.6,13.7,30.08,SW,227,6.0,16.0,49,0.00,BKN,,0.00,225.0,WeatherDisplay:10.37,2013-04-02 14:20:00,
2013-04-02 10:25:00,30.9,14.4,30.08,SW,230,8.0,17.0,50,0.00,BKN,,0.00,167.0,WeatherDisplay:10.37,2013-04-02 14:25:00,
2013-04-02 10:30:00,30.9,13.5,30.08,WSW,239,7.0,16.0,48,0.00,BKN,,0.00,186.0,WeatherDisplay:10.37,2013-04-02 14:30:00,
2013-04-02 10:35:00,31.1,13.2,30.08,WSW,252,8.0,21.0,47,0.00,BKN,,0.00,438.0,WeatherDisplay:10.37,2013-04-02 14:35:00,
2013-04-02 10:40:00,31.3,13.9,30.08,WSW,240,8.0,21.0,48,0.00,BKN,,0.00,295.0,WeatherDisplay:10.37,2013-04-02 14:40:00,
2013-04-02 10:45:00,30.7,14.7,30.08,SW,225,10.0,18.0,51,0.00,BKN,,0.00,153.0,WeatherDisplay:10.37,2013-04-02 14:45:00,
2013-04-02 10:50:00,30.1,15.4,30.08,SSW,212,7.0,12.0,54,0.00,BKN,,0.00,197.0,WeatherDisplay:10.37,2013-04-02 14:50:00,
2013-04-02 10:55:00,29.6,15.8,30.08,SSW,207,9.0,20.0,56,0.00,BKN,,0.00,192.0,WeatherDisplay:10.37,2013-04-02 14:55:00,
2013-04-02 11:00:00,29.4,16.8,30.08,SW,217,6.0,20.0,59,0.00,BKN,,0.00,383.0,WeatherDisplay:10.37,2013-04-02 15:00:00,
2013-04-02 11:05:00,29.8,16.0,30.08,SSW,203,6.0,14.0,56,0.00,BKN,,0.00,380.0,WeatherDisplay:10.37,2013-04-02 15:05:00,
2013-04-02 11:10:00,30.4,15.3,30.08,SSW,208,10.0,20.0,53,0.00,BKN,,0.00,232.0,WeatherDisplay:10.37,2013-04-02 15:10:00,
2013-04-02 11:20:00,30.7,15.1,30.08,SSW,213,14.0,23.0,52,0.00,BKN,,0.00,229.0,WeatherDisplay:10.37,2013-04-02 15:20:00,
2013-04-02 11:30:00,30.5,17.0,30.08,SW,227,8.0,15.0,57,0.00,BKN,,0.00,352.0,WeatherDisplay:10.37,2013-04-02 15:30:00,
2013-04-02 11:35:00,31.1,15.9,30.08,SW,216,8.0,21.0,53,0.00,BKN,,0.00,413.0,WeatherDisplay:10.37,2013-04-02 15:35:00,
2013-04-02 11:40:00,31.3,16.2,30.08,SW,220,8.0,15.0,53,0.00,BKN,,0.00,338.0,WeatherDisplay:10.37,2013-04-02 15:40:00,
2013-04-02 11:50:00,32.5,15.9,30.08,SW,226,10.0,20.0,50,0.00,BKN,,0.00,258.0,WeatherDisplay:10.37,2013-04-02 15:50:00,
2013-04-02 11:55:00,31.5,17.6,30.08,SW,233,7.0,17.0,56,0.00,BKN,,0.00,406.0,WeatherDisplay:10.37,2013-04-02 15:55:00,
2013-04-02 12:00:00,31.7,16.0,30.08,SW,218,12.0,20.0,52,0.00,BKN,,0.00,563.0,WeatherDisplay:10.37,2013-04-02 16:00:00,
2013-04-02 12:05:00,32.2,15.6,30.08,SW,229,9.0,15.0,50,0.00,BKN,,0.00,272.0,WeatherDisplay:10.37,2013-04-02 16:05:00,
2013-04-02 12:10:00,33.1,16.0,30.08,WSW,252,10.0,20.0,49,0.00,BKN,,0.00,415.0,WeatherDisplay:10.37,2013-04-02 16:10:00,
2013-04-02 12:15:00,32.8,18.3,30.09,SW,231,13.0,23.0,55,0.00,BKN,,0.00,262.0,WeatherDisplay:10.37,2013-04-02 16:15:00,
2013-04-02 12:20:00,31.3,17.8,30.09,SW,217,10.0,17.0,57,0.00,BKN,,0.00,452.0,WeatherDisplay:10.37,2013-04-02 16:20:00,
2013-04-02 12:30:00,32.9,17.2,30.08,WSW,248,7.0,18.0,52,0.00,BKN,,0.00,420.0,WeatherDisplay:10.37,2013-04-02 16:30:00,
2013-04-02 12:35:00,33.2,17.0,30.08,WSW,250,8.0,13.0,51,0.00,BKN,,0.00,172.0,WeatherDisplay:10.37,2013-04-02 16:35:00,
2013-04-02 12:40:00,32.8,16.2,30.08,WSW,241,7.0,16.0,50,0.00,BKN,,0.00,200.0,WeatherDisplay:10.37,2013-04-02 16:40:00,
2013-04-02 12:50:00,34.6,14.4,30.07,WSW,237,10.0,16.0,43,0.00,BKN,,0.00,225.0,WeatherDisplay:10.37,2013-04-02 16:50:00,
2013-04-02 13:00:00,34.6,13.3,30.07,SW,234,13.0,18.0,41,0.00,BKN,,0.00,181.0,WeatherDisplay:10.37,2013-04-02 17:00:00,
2013-04-02 13:05:00,34.0,17.3,30.07,SW,231,12.0,23.0,50,0.00,BKN,,0.00,169.0,WeatherDisplay:10.37,2013-04-02 17:05:00,
2013-04-02 13:10:00,32.2,18.3,30.07,SW,229,9.0,23.0,56,0.00,BKN,,0.00,499.0,WeatherDisplay:10.37,2013-04-02 17:10:00,
2013-04-02 13:20:00,34.4,16.7,30.07,SW,220,8.0,20.0,48,0.00,BKN,,0.00,937.0,WeatherDisplay:10.37,2013-04-02 17:20:00,
2013-04-02 13:30:00,34.3,16.6,30.07,SW,218,13.0,22.0,48,0.00,BKN,,0.00,840.0,WeatherDisplay:10.37,2013-04-02 17:30:00,
2013-04-02 13:35:00,34.7,15.0,30.07,SW,224,13.0,22.0,44,0.00,BKN,,0.00,840.0,WeatherDisplay:10.37,2013-04-02 17:35:00,
2013-04-02 13:40:00,35.7,15.4,30.07,SW,230,7.0,18.0,43,0.00,BKN,,0.00,947.0,WeatherDisplay:10.37,2013-04-02 17:40:00,
2013-04-02 13:50:00,37.0,16.5,30.06,SW,229,10.0,18.0,43,0.00,BKN,,0.00,258.0,WeatherDisplay:10.37,2013-04-02 17:50:00,
2013-04-02 13:55:00,35.9,16.6,30.06,SW,225,13.0,18.0,45,0.00,BKN,,0.00,176.0,WeatherDisplay:10.37,2013-04-02 17:55:00,
2013-04-02 14:05:00,34.9,19.9,30.07,SW,223,8.0,16.0,54,0.00,BKN,,0.00,969.0,WeatherDisplay:10.37,2013-04-02 18:05:00,
2013-04-02 14:10:00,35.1,16.9,30.07,SW,233,10.0,18.0,47,0.00,BKN,,0.00,316.0,WeatherDisplay:10.37,2013-04-02 18:10:00,
2013-04-02 14:15:00,36.2,17.4,30.07,SW,221,12.0,20.0,46,0.00,BKN,,0.00,939.0,WeatherDisplay:10.37,2013-04-02 18:15:00,
2013-04-02 14:20:00,36.3,15.9,30.07,SW,214,10.0,22.0,43,0.00,BKN,,0.00,962.0,WeatherDisplay:10.37,2013-04-02 18:20:00,
2013-04-02 14:30:00,36.5,16.6,30.08,SW,221,16.0,27.0,44,0.00,BKN,,0.00,239.0,WeatherDisplay:10.37,2013-04-02 18:30:00,
2013-04-02 14:35:00,35.0,18.2,30.08,SW,227,14.0,22.0,50,0.00,BKN,,0.00,942.0,WeatherDisplay:10.37,2013-04-02 18:35:00,
2013-04-02 14:40:00,35.3,18.0,30.08,SW,234,9.0,20.0,49,0.00,BKN,,0.00,160.0,WeatherDisplay:10.37,2013-04-02 18:40:00,
2013-04-02 14:50:00,34.1,17.8,30.08,WSW,246,8.0,17.0,51,0.00,BKN,,0.00,318.0,WeatherDisplay:10.37,2013-04-02 18:50:00,
2013-04-02 14:55:00,34.6,15.4,30.08,WSW,250,10.0,20.0,45,0.00,BKN,,0.00,988.0,WeatherDisplay:10.37,2013-04-02 18:55:00,
2013-04-02 15:00:00,35.3,16.5,30.08,SW,227,13.0,22.0,46,0.00,BKN,,0.00,824.0,WeatherDisplay:10.37,2013-04-02 19:00:00,
2013-04-02 15:05:00,35.9,18.1,30.08,SW,226,13.0,21.0,48,0.00,BKN,,0.00,780.0,WeatherDisplay:10.37,2013-04-02 19:05:00,
2013-04-02 15:10:00,36.0,20.1,30.08,SW,232,15.0,24.0,52,0.00,BKN,,0.00,221.0,WeatherDisplay:10.37,2013-04-02 19:10:00,
2013-04-02 15:20:00,35.3,19.0,30.08,SW,215,9.0,22.0,51,0.00,BKN,,0.00,779.0,WeatherDisplay:10.37,2013-04-02 19:20:00,
2013-04-02 15:35:00,35.7,14.9,30.07,SW,219,10.0,20.0,42,0.00,BKN,,0.00,134.0,WeatherDisplay:10.37,2013-04-02 19:35:00,
2013-04-02 15:40:00,34.9,15.1,30.07,SW,217,9.0,18.0,44,0.00,BKN,,0.00,211.0,WeatherDisplay:10.37,2013-04-02 19:40:00,
2013-04-02 15:50:00,34.6,13.8,30.07,SW,228,9.0,16.0,42,0.00,BKN,,0.00,204.0,WeatherDisplay:10.37,2013-04-02 19:50:00,
2013-04-02 16:00:00,35.3,12.2,30.08,WSW,239,9.0,23.0,38,0.00,BKN,,0.00,466.0,WeatherDisplay:10.37,2013-04-02 20:00:00,
2013-04-02 16:05:00,36.1,11.7,30.08,SW,233,13.0,23.0,36,0.00,BKN,,0.00,728.0,WeatherDisplay:10.37,2013-04-02 20:05:00,
2013-04-02 16:15:00,35.6,10.6,30.08,WSW,239,13.0,27.0,35,0.00,BKN,,0.00,186.0,WeatherDisplay:10.37,2013-04-02 20:15:00,
2013-04-02 16:20:00,35.5,11.1,30.08,WSW,237,13.0,21.0,36,0.00,BKN,,0.00,165.0,WeatherDisplay:10.37,2013-04-02 20:20:00,
2013-04-02 16:35:00,36.2,12.4,30.08,WSW,240,14.0,26.0,37,0.00,BKN,,0.00,192.0,WeatherDisplay:10.37,2013-04-02 20:35:00,
2013-04-02 16:40:00,35.3,10.4,30.08,WSW,237,12.0,26.0,35,0.00,BKN,,0.00,116.0,WeatherDisplay:10.37,2013-04-02 20:40:00,
2013-04-02 16:50:00,36.3,11.2,30.08,SW,225,13.0,27.0,35,0.00,BKN,,0.00,192.0,WeatherDisplay:10.37,2013-04-02 20:50:00,
2013-04-02 17:00:00,35.4,12.9,30.09,WSW,242,8.0,15.0,39,0.00,BKN,,0.00,130.0,WeatherDisplay:10.37,2013-04-02 21:00:00,
2013-04-02 17:05:00,34.9,9.9,30.09,WSW,244,14.0,21.0,35,0.00,BKN,,0.00,102.0,WeatherDisplay:10.37,2013-04-02 21:05:00,
2013-04-02 17:10:00,34.6,10.3,30.09,WSW,239,10.0,20.0,36,0.00,BKN,,0.00,257.0,WeatherDisplay:10.37,2013-04-02 21:10:00,
2013-04-02 17:20:00,35.6,11.2,30.09,SW,236,13.0,20.0,36,0.00,BKN,,0.00,185.0,WeatherDisplay:10.37,2013-04-02 21:20:00,
2013-04-02 17:30:00,35.3,11.6,30.10,WSW,249,10.0,20.0,37,0.00,BKN,,0.00,202.0,WeatherDisplay:10.37,2013-04-02 21:30:00,
2013-04-02 17:35:00,35.1,12.0,30.10,WSW,246,10.0,17.0,38,0.00,BKN,,0.00,338.0,WeatherDisplay:10.37,2013-04-02 21:35:00,
2013-04-02 17:40:00,35.1,12.0,30.10,WSW,254,10.0,17.0,38,0.00,BKN,,0.00,116.0,WeatherDisplay:10.37,2013-04-02 21:40:00,
2013-04-02 17:50:00,34.3,11.9,30.10,WSW,248,10.0,21.0,39,0.00,BKN,,0.00,118.0,WeatherDisplay:10.37,2013-04-02 21:50:00,
2013-04-02 18:00:00,34.1,14.4,30.11,WSW,253,7.0,14.0,44,0.00,BKN,,0.00,86.0,WeatherDisplay:10.37,2013-04-02 22:00:00,
2013-04-02 18:05:00,33.8,15.2,30.11,WSW,257,7.0,18.0,46,0.00,BKN,,0.00,88.0,WeatherDisplay:10.37,2013-04-02 22:05:00,
2013-04-02 18:10:00,33.7,15.6,30.11,WSW,258,6.0,15.0,47,0.00,BKN,,0.00,107.0,WeatherDisplay:10.37,2013-04-02 22:10:00,
2013-04-02 18:20:00,34.3,11.9,30.11,WSW,243,8.0,16.0,39,0.00,BKN,,0.00,181.0,WeatherDisplay:10.37,2013-04-02 22:20:00,
2013-04-02 18:30:00,34.7,15.5,30.11,WSW,245,9.0,17.0,45,0.00,BKN,,0.00,72.0,WeatherDisplay:10.37,2013-04-02 22:30:00,
2013-04-02 18:35:00,34.2,15.1,30.11,WSW,237,8.0,13.0,45,0.00,BKN,,0.00,176.0,WeatherDisplay:10.37,2013-04-02 22:35:00,
2013-04-02 18:40:00,33.8,13.1,30.11,SW,235,14.0,20.0,42,0.00,BKN,,0.00,95.0,WeatherDisplay:10.37,2013-04-02 22:40:00,
2013-04-02 18:45:00,33.7,11.9,30.11,WSW,240,8.0,20.0,40,0.00,BKN,,0.00,77.0,WeatherDisplay:10.37,2013-04-02 22:45:00,
2013-04-02 18:55:00,33.7,12.5,30.11,SW,232,9.0,17.0,41,0.00,BKN,,0.00,93.0,WeatherDisplay:10.37,2013-04-02 22:55:00,
2013-04-02 19:05:00,33.4,12.7,30.11,SW,230,8.0,15.0,42,0.00,BKN,,0.00,49.0,WeatherDisplay:10.37,2013-04-02 23:05:00,
2013-04-02 19:10:00,33.4,12.7,30.11,SW,227,8.0,15.0,42,0.00,BKN,,0.00,37.0,WeatherDisplay:10.37,2013-04-02 23:10:00,
2013-04-02 19:15:00,33.1,13.0,30.12,SW,229,7.0,13.0,43,0.00,BKN,,0.00,23.0,WeatherDisplay:10.37,2013-04-02 23:15:00,
2013-04-02 19:20:00,32.9,12.8,30.12,SW,232,9.0,13.0,43,0.00,BKN,,0.00,33.0,WeatherDisplay:10.37,2013-04-02 23:20:00,
2013-04-02 19:25:00,32.8,13.2,30.12,SW,232,6.0,12.0,44,0.00,BKN,,0.00,40.0,WeatherDisplay:10.37,2013-04-02 23:25:00,
2013-04-02 19:30:00,32.8,13.2,30.12,WSW,241,7.0,13.0,44,0.00,BKN,,0.00,12.0,WeatherDisplay:10.37,2013-04-02 23:30:00,
2013-04-02 19:35:00,32.5,13.5,30.12,SW,231,8.0,13.0,45,0.00,BKN,,0.00,9.0,WeatherDisplay:10.37,2013-04-02 23:35:00,
2013-04-02 19:45:00,32.0,14.0,30.12,SW,228,2.0,7.0,47,0.00,BKN,,0.00,0.0,WeatherDisplay:10.37,2013-04-02 23:45:00,
2013-04-02 19:50:00,31.8,13.8,30.12,SW,227,6.0,12.0,47,0.00,BKN,,0.00,0.0,WeatherDisplay:10.37,2013-04-02 23:50:00,
2013-04-02 20:00:00,31.6,14.1,30.13,SW,224,5.0,10.0,48,0.00,BKN,,0.00,0.0,WeatherDisplay:10.37,2013-04-03 00:00:00,
2013-04-02 20:05:00,31.5,14.5,30.13,SW,217,5.0,10.0,49,0.00,BKN,,0.00,0.0,WeatherDisplay:10.37,2013-04-03 00:05:00,
2013-04-02 20:10:00,31.3,14.3,30.13,SW,221,5.0,10.0,49,0.00,BKN,,0.00,0.0,WeatherDisplay:10.37,2013-04-03 00:10:00,
2013-04-02 20:15:00,31.3,14.3,30.13,SW,225,6.0,12.0,49,0.00,BKN,,0.00,0.0,WeatherDisplay:10.37,2013-04-03 00:15:00,
2013-04-02 20:20:00,31.2,14.2,30.13,SW,224,5.0,9.0,49,0.00,FEW,,0.00,0.0,WeatherDisplay:10.37,2013-04-03 00:20:00,
2013-04-02 20:30:00,31.0,14.0,30.13,SW,234,6.0,13.0,49,0.00,FEW,,0.00,0.0,WeatherDisplay:10.37,2013-04-03 00:30:00,
2013-04-02 20:40:00,30.9,14.0,30.13,SW,232,5.0,12.0,49,0.00,FEW,,0.00,0.0,WeatherDisplay:10.37,2013-04-03 00:40:00,
2013-04-02 20:50:00,30.6,14.1,30.14,SW,231,5.0,8.0,50,0.00,FEW,,0.00,0.0,WeatherDisplay:10.37,2013-04-03 00:50:00,
2013-04-02 21:00:00,30.3,14.3,30.14,SW,236,6.0,10.0,51,0.00,FEW,,0.00,0.0,WeatherDisplay:10.37,2013-04-03 01:00:00,
2013-04-02 21:10:00,30.4,14.9,30.14,SW,229,5.0,8.0,52,0.00,FEW,,0.00,0.0,WeatherDisplay:10.37,2013-04-03 01:10:00,
2013-04-02 21:15:00,30.3,15.2,30.15,SW,224,3.0,9.0,53,0.00,FEW,,0.00,0.0,WeatherDisplay:10.37,2013-04-03 01:15:00,
2013-04-02 21:20:00,30.1,15.0,30.15,SW,221,5.0,8.0,53,0.00,FEW,,0.00,0.0,WeatherDisplay:10.37,2013-04-03 01:20:00,
2013-04-02 21:25:00,30.1,15.0,30.15,SW,219,3.0,8.0,53,0.00,FEW,,0.00,0.0,WeatherDisplay:10.37,2013-04-03 01:25:00,
2013-04-02 21:30:00,30.1,15.0,30.15,SW,219,5.0,10.0,53,0.00,FEW,,0.00,0.0,WeatherDisplay:10.37,2013-04-03 01:30:00,
2013-04-02 21:35:00,30.0,15.3,30.15,SW,229,5.0,8.0,54,0.00,FEW,,0.00,0.0,WeatherDisplay:10.37,2013-04-03 01:35:00,
2013-04-02 21:40:00,29.9,15.3,30.15,SW,225,5.0,7.0,54,0.00,FEW,,0.00,0.0,WeatherDisplay:10.37,2013-04-03 01:40:00,
2013-04-02 21:45:00,29.8,15.2,30.16,SW,226,5.0,13.0,54,0.00,FEW,,0.00,0.0,WeatherDisplay:10.37,2013-04-03 01:45:00,
2013-04-02 21:50:00,29.8,15.2,30.16,SW,234,5.0,7.0,54,0.00,FEW,,0.00,0.0,WeatherDisplay:10.37,2013-04-03 01:50:00,
2013-04-02 21:55:00,29.7,15.5,30.16,SW,231,3.0,7.0,55,0.00,FEW,,0.00,0.0,WeatherDisplay:10.37,2013-04-03 01:55:00,
2013-04-02 22:00:00,29.7,15.5,30.16,SW,229,3.0,10.0,55,0.00,FEW,,0.00,0.0,WeatherDisplay:10.37,2013-04-03 02:00:00,
2013-04-02 22:15:00,29.4,15.2,30.16,SW,223,5.0,9.0,55,0.00,FEW,,0.00,0.0,WeatherDisplay:10.37,2013-04-03 02:15:00,
2013-04-02 22:20:00,29.4,15.2,30.16,SW,235,3.0,8.0,55,0.00,FEW,,0.00,0.0,WeatherDisplay:10.37,2013-04-03 02:20:00,
2013-04-02 22:25:00,29.4,15.2,30.16,WSW,240,3.0,10.0,55,0.00,FEW,,0.00,0.0,WeatherDisplay:10.37,2013-04-03 02:25:00,
2013-04-02 22:30:00,29.4,14.8,30.16,WSW,244,3.0,8.0,54,0.00,FEW,,0.00,0.0,WeatherDisplay:10.37,2013-04-03 02:30:00,
2013-04-02 22:35:00,29.2,15.0,30.16,WSW,248,2.0,5.0,55,0.00,FEW,,0.00,0.0,WeatherDisplay:10.37,2013-04-03 02:35:00,
2013-04-02 22:40:00,29.1,14.9,30.16,WSW,248,1.0,4.0,55,0.00,FEW,,0.00,0.0,WeatherDisplay:10.37,2013-04-03 02:40:00,
2013-04-02 22:50:00,28.6,14.9,30.16,WSW,241,1.0,5.0,56,0.00,FEW,,0.00,0.0,WeatherDisplay:10.37,2013-04-03 02:50:00,
2013-04-02 22:55:00,28.5,14.8,30.16,WSW,237,2.0,4.0,56,0.00,FEW,,0.00,0.0,WeatherDisplay:10.37,2013-04-03 02:55:00,
2013-04-02 23:00:00,28.3,15.0,30.16,WSW,237,0.0,3.0,57,0.00,FEW,,0.00,0.0,WeatherDisplay:10.37,2013-04-03 03:00:00,
2013-04-02 23:10:00,28.2,15.3,30.16,WSW,237,1.0,4.0,58,0.00,FEW,,0.00,0.0,WeatherDisplay:10.37,2013-04-03 03:10:00,
2013-04-02 23:15:00,28.1,15.2,30.16,WSW,237,1.0,4.0,58,0.00,FEW,,0.00,0.0,WeatherDisplay:10.37,2013-04-03 03:15:00,
2013-04-02 23:20:00,27.9,15.4,30.16,WSW,237,1.0,3.0,59,0.00,FEW,,0.00,0.0,WeatherDisplay:10.37,2013-04-03 03:20:00,
2013-04-02 23:25:00,27.9,15.4,30.16,WSW,237,2.0,5.0,59,0.00,FEW,,0.00,0.0,WeatherDisplay:10.37,2013-04-03 03:25:00,
2013-04-02 23:30:00,27.8,15.3,30.16,WSW,237,2.0,5.0,59,0.00,FEW,,0.00,0.0,WeatherDisplay:10.37,2013-04-03 03:30:00,
2013-04-02 23:40:00,27.9,15.4,30.16,WSW,250,2.0,7.0,59,0.00,FEW,,0.00,0.0,WeatherDisplay:10.37,2013-04-03 03:40:00,
2013-04-02 23:50:00,27.9,15.4,30.16,SW,229,2.0,5.0,59,0.00,FEW,,0.00,0.0,WeatherDisplay:10.37,2013-04-03 03:50:00,